01:56
Airports
History
Links
Donate
Help keep this website running!
PayPal
Bitcoin
This page is community maintained. The information is intended for PC simulator navigation or reference.
Always use approved charts for navigation.
ME53
Ashland
Ashland (ME53)
Ashland, Maine, United States (4732)
4
Lat/Lng:46° 36' 0.15" N / 68° 23' 40.15" W
46.600042 / -68.394485
Elevation:760'ft / 232mMSL
ID / ICAO:ME53
Runways:1
Longest:36-18
Gravel 612m / 2,006ft
Nearby Weather00:56 GMT 2017-10-19
Nearby weather at KPQI, Northern Maine Rgnl Arpt At Pr located 17.7 nautical miles from ME53
Altimeter: 30.19
Visibility: 10.0 statute miles
Wind: 0 knots (from 000°)
Temp: 2°c / 36°f
Humidity: 93.1%

METAR: KPQI 190056Z AUTO 00000KT 10SM CLR 02/01 A3019 RMK AO2 SLP270 T00220006 FZRANO

(Powered by phpweather)
Nearby VORs <50NM
Nearby NDBs
Runway 36 / 18
Dimensions:611.5 x 30.5m 2006' x 100'ft
Surface:Gravel
Runway 36 [A]Runway 18 [B]
Heading:339°TH 159°TH
Lat:
Lng:
46° 35' 50.87"N
68° 23' 35.23"W
46° 36' 9.43"N
68° 23' 45.06"W
User Notes and Comments
46° 36' 0.15" N / 68° 23' 40.15" W
Distance To
Airport ID:
Nearby Airports
(R) Allen St Peter Memorial 11.0 NM
ME05 NNW 340°
(U) Northern Maine Rgnl Arpt At Pr 17.7 NM
KPQI ( WX ) ENE 69°
4 Rogers 21.8 NM
ME81 E 85°
(R) Mars Hill 25.1 NM
ME40 E 101°
4 Mars Hill 25.2 NM
ME38 E 101°
(U) Caribou Muni 25.9 NM
KCAR ( WX ) NE 43°
(R) Loring Intl 34.1 NM
ME16 NE 44°
VFR Chart
Flight Planning at SkyVector.com